Regional Weather Roundup
Issued by NWS

Home | Current Version | Previous Version | Text Only | Print | Product List | Glossary Off
Versions: 1 2 3 4 5 6 7 8 9 10 11 12 13 14 15 16 17 18 19 20 21 22 23 24 25 26 27 28 29 30 31 32 33 34 35 36 37 38 39 40 41 42 43 44 45 46 47 48 49 50

090
ASUS45 KBOU 211707
RWRCO

WEATHER ROUNDUP FOR COLORADO
NATIONAL WEATHER SERVICE DENVER/BOULDER CO
1000 AM MST SAT JAN 21 2017

NOTE: "FAIR" INDICATES FEW OR NO CLOUDS BELOW 12000 FEET WITH NO
SIGNIFICANT WEATHER AND/OR OBSTRUCTIONS TO VISIBILITY.

COZ001>005-013-030-031-211800-
...NORTHWEST COLORADO...

CITY           SKY/WX    TMP DP  RH WIND       PRES   REMARKS
CRAIG          CLOUDY    22  16  78 SW7       29.37R WCI  13
HAYDEN         PTSUNNY   21  14  73 SE12      29.36R WCI   9
MEEKER         CLOUDY    25  20  81 CALM      29.36R
MOUNT WERNER   NOT AVBL
STEAMBOAT SPGS CLOUDY    19  17  89 CALM      29.36S
WALDEN           N/A     10   5  79 CALM      29.39R
$$

COZ006>008-011-211800-
...WEST CENTRAL VALLEYS...

CITY           SKY/WX    TMP DP  RH WIND       PRES   REMARKS
GRAND JUNCTION LGT SNOW  32  32 100 E7        29.38R VSB 3/4 WCI  26
MONTROSE       CLOUDY    31  26  82 NW7       29.39R WCI  24
EAGLE          CLOUDY    21  12  68 CALM      29.45R
RIFLE          FLURRIES  29  26  89 W5        29.38R WCI  24
DELTA          FLURRIES  34  32  93 CALM      29.39S
NUCLA          LGT SNOW  32  32 100 CALM      29.40R
$$

COZ017>023-064>068-211800-
...SOUTHWEST COLORADO...

CITY           SKY/WX    TMP DP  RH WIND       PRES   REMARKS
DURANGO        SNOW      29  27  92 W13       29.38R VSB 1/4 WCI  19
CORTEZ         SNOW      31  31 100 SW9       29.41R VSB 1/2 WCI  23
PAGOSA SPRINGS LGT SNOW  29  29  99 SE6       29.37R VSB 3/4 WCI  23
TELLURIDE      NOT AVBL
WOLF CREEK PAS CLOUDY    14  14 100 S13G20    29.39S WCI   0
$$

COZ009-010-012-014-032>034-037-058>063-211800-
...CENTRAL COLORADO...

CITY           SKY/WX    TMP DP  RH WIND       PRES   REMARKS
ASPEN          PTSUNNY   22  15  75 CALM      29.34S
BUENA VISTA    CLOUDY    18  10  68 W7        29.40R WCI   9
COPPER MTN     CLOUDY    21   9  58 S6        29.35R WCI  14
BERTHOUD PASS  NOT AVBL
COTTONWOOD PAS FAIR      21  16  79 CALM      29.37R
GUNNISON       FAIR       9   4  80 CALM      29.41S
KREMMLING      LGT SNOW N/A N/A N/A CALM      29.45R
LEADVILLE      FAIR      15  10  80 CALM      29.36R
MONARCH PASS     N/A     18  14  86 SW12G22   29.46R WCI   5
SALIDA         PTSUNNY   24  12  61 CALM      29.48S
SUNLIGHT       SNOW      18  14  86 MISG      29.39R VSB 1/4
WILKERSON PASS FLURRIES  18  14  86 S3        29.40R
$$

COZ069>075-211800-
...SAN LUIS VALLEY/SANGRE DE CRISTO MOUNTAINS...

CITY           SKY/WX    TMP DP  RH WIND       PRES   REMARKS
ALAMOSA        FLURRIES  25  21  85 CALM      29.39S
LA VETA PASS   CLOUDY    23  21  93 NE9G23    29.38R FOG     WCI  13
SAGUACHE       CLOUDY    23  19  86 NW12      29.40S WCI  12
$$

COZ035-036-038>040-211800-
...NORTHERN COLORADO FRONT RANGE...

CITY           SKY/WX    TMP DP  RH WIND       PRES   REMARKS
DENVER INTL AP PTSUNNY   31  24  75 W6        29.39R WCI  25
DMNS CITY PARK   N/A     34  24  65 NE10      29.39S WCI  26
AURORA         PTSUNNY   30  18  61 SW6       29.38S WCI  24
FRONT RANGE AP PTSUNNY   36  19  51 CALM      29.39R
ERIE MUNI ARPT FAIR      32  26  78 CALM      29.41R
BOULDER MUN AP FAIR      32  27  80 CALM      29.40R
CENTENNIAL     FAIR      33  22  63 N3        29.38R
BROOMFIELD     PTSUNNY   32  27  80 CALM      29.39R
FORT COLLINS   FAIR      28  25  86 CALM      29.41R
LONGMONT       FAIR      32  26  80 CALM      29.43R
$$

COZ041-046-047-076>085-087-088-211800-
...PIKES PEAK/PALMER DIVIDE AND SOUTHERN FOOTHILLS...

CITY           SKY/WX    TMP DP  RH WIND       PRES   REMARKS
COLO. SPRINGS  PTSUNNY   33  25  72 N6        29.38F WCI  28
A. F. ACADEMY  FAIR      29  23  79 CALM      29.36F
SCHRIEVER AFB  NOT AVBL
ELLICOTT       FAIR     N/A N/A N/A NE3       29.35F
FALCON         FAIR      33  22  64 CALM      29.38S
FORT CARSON    NOT AVBL
LIMON          FAIR      30  29  96 SE3       29.40R
MONUMENT HILL  FAIR      32  19  59 S7        29.38S WCI  26
TRINIDAD       PTSUNNY   30  21  69 W7        29.36R WCI  23
$$

COZ042>045-048>051-090-091-211800-
...NORTHEAST COLORADO...

CITY           SKY/WX    TMP DP  RH WIND       PRES   REMARKS
GREELEY ARPT   FOG       24  23  96 CALM      29.42R VSB 1/4
AKRON          FAIR      38  26  62 SE12      29.41R
BURLINGTON     FAIR      37  32  82 SE8       29.41R
WRAY           FAIR      37  30  75 CALM      29.43S
STERLING       FAIR      32  28  86 CALM      29.42R
HOLYOKE        FAIR      39  30  70 CALM      29.43F
FORT MORGAN    FAIR      33  30  88 CALM      29.42R
$$

COZ086-089-092>099-211800-
...SOUTHEAST COLORADO...

CITY           SKY/WX    TMP DP  RH WIND       PRES   REMARKS
PUEBLO         CLOUDY    32  29  88 W5        29.39S WCI  27
LA JUNTA       FOG       29  27  92 N5        29.40F VSB 1/4 WCI  24
LAMAR          FAIR      30  28  92 W7        29.40R WCI  23
SPRINGFIELD      N/A     42  26  53 NE3       29.35F
$$




USA.gov is the U.S. government's official web portal to all federal, state and local government web resources and services.